Regional Weather Roundup
Issued by NWS

Home | Current Version | Previous Version | Text Only | Print | Product List | Glossary Off
Versions: 1 2 3 4 5 6 7 8 9 10 11 12 13 14 15 16 17 18 19 20 21 22 23 24 25 26 27 28 29 30 31 32 33 34 35 36 37 38 39 40 41 42 43 44 45 46 47 48 49 50

897
ASUS43 KDTX 280810
RWRMI
MICHIGAN HOURLY REGIONAL WEATHER ROUNDUP
NATIONAL WEATHER SERVICE DETROIT/PONTIAC MI
ISSUED BY NATIONAL WEATHER SERVICE GRAND RAPIDS MI
400 AM EDT SUN MAY 28 2017

NOTE: "FAIR" INDICATES FEW OR NO CLOUDS BELOW 12,000 FEET WITH NO
SIGNIFICANT WEATHER AND/OR OBSTRUCTION TO VISIBILITY.

MIZ047>049-052>055-059>063-066>070-074>076-081>083-280900-
SOUTHEAST LOWER MICHIGAN

CITY           SKY/WX    TMP DP  RH WIND       PRES   REMARKS
ADRIAN         CLOUDY    58  55  90 E6        29.83F
ALMA           CLOUDY    59  58  95 CALM      29.83F
ANN ARBOR      CLOUDY    57  56  96 N3        29.84R
BAD AXE        CLOUDY    52  50  92 CALM      29.86S
DETROIT CITY   CLOUDY    59  53  80 CALM      29.86R
DETROIT        CLOUDY    61  52  72 CALM      29.86R
FLINT          CLOUDY    56  55  97 SE3       29.85R
GROSSE ILE     CLOUDY    58  53  81 CALM      29.85R
HILLSDALE      CLOUDY    54  52  94 CALM      29.83F
HOWELL         CLOUDY    57  54  89 CALM      29.84F

CITY           SKY/WX    TMP DP  RH WIND       PRES   REMARKS
JACKSON        CLOUDY    58  55  90 CALM      29.84F
LANSING        MOCLDY    58  53  84 CALM      29.85F
MASON          CLOUDY    57  56  97 CALM      29.84F
MONROE         CLOUDY    59  55  87 N3        29.84R
MT. CLEMENS    CLOUDY    56  56 100 W3        29.85R
PONTIAC        CLOUDY    56  53  90 CALM      29.86R
PORT HOPE        N/A     54  50  86 SW3       29.84R
PORT HURON     CLOUDY    52  50  93 CALM      29.87R FOG
TRI CITIES     MOCLDY    62  58  86 S5        29.84F
YPSILANTI      CLOUDY    60  57  89 N3        29.86R
$$
MIZ043>046-050>051-056>058-064>065-071>073-077>080-280900-
SOUTHWEST LOWER MICHIGAN

CITY           SKY/WX    TMP DP  RH WIND       PRES   REMARKS
BATTLE CREEK   CLOUDY    61  57  87 E3        29.83F
BENTON HARBOR    N/A     57  55  93 CALM      29.79F
BIG RAPIDS     CLOUDY    57  53  86 CALM      29.82S
COLDWATER      MOCLDY    56  56 100 CALM      29.83S
HOLLAND        CLOUDY    61  53  75 CALM      29.81F
GRAND RAPIDS   CLOUDY    59  57  93 SE3       29.81F
KALAMAZOO      CLOUDY    60  56  86 CALM      29.82F
MARSHALL       CLOUDY    57  57  98 CALM      29.83F
MOUNT PLEASANT CLOUDY    57  56  95 CALM      29.81F
MUSKEGON       CLOUDY    60  53  77 SE6       29.79F
STURGIS        CLOUDY    59  56  89 E6        29.81F
$$
MIZ016>042-280900-
NORTHERN LOWER MICHIGAN

CITY           SKY/WX    TMP DP  RH WIND       PRES   REMARKS
ALPENA         LGT RAIN  57  54  89 SE7       29.83F
BEAVER ISLAND  CLOUDY    58  51  76 S3        29.78F
BELLAIRE       CLOUDY    55  53  92 CALM      29.80S
CADILLAC       CLOUDY    57  53  87 CALM      29.81F
CHARLEVOIX     CLOUDY    57  56  97 CALM      29.82S
GAYLORD        CLOUDY    59  53  80 S6        29.81F
HOUGHTON LAKE  CLOUDY    55  53  93 E3        29.82F
MANISTEE       CLOUDY    53  51  93 E3        29.79F
OSCODA         PTCLDY    49  47  93 W6        29.84S
PELLSTON       CLOUDY    52  49  89 CALM      29.80S
TRAVERSE CITY  CLOUDY    58  54  86 CALM      29.78F
LUDINGTON      CLOUDY    53  52  97 CALM      29.78F
$$
MIZ007>008-015-280900-
EASTERN UPPER MICHIGAN

CITY           SKY/WX    TMP DP  RH WIND       PRES   REMARKS
KINROSS        CLOUDY    53  50  89 SE8       29.80F
MACKINAC ISLAN CLOUDY    50  50 100 CALM      29.79F
NEWBERRY       CLOUDY    55  51  88 S6        29.78F
S. S. MARIE    CLOUDY    55  50  83 E3        29.80S
$$
MIZ004>006-011>014-085-280900-
CENTRAL UPPER MICHIGAN

CITY           SKY/WX    TMP DP  RH WIND       PRES   REMARKS
MANISTIQUE     CLOUDY    49  46  90 SE3       29.77F
ESCANABA       CLOUDY    54  53  97 CALM      29.77F
SAWYER-GWINN   LGT RAIN  55  53  94 CALM      29.79S
$$
MIZ001>003-009>011-084-280900-
WESTERN UPPER MICHIGAN

CITY           SKY/WX    TMP DP  RH WIND       PRES   REMARKS
IRON MOUNTAIN  CLOUDY    57  51  80 NE5       29.76F
HOUGHTON       CLOUDY    51  47  86 N3        29.74F
COPPER HARBOR    N/A     55  53  93 VRB7G17   29.73F
IRONWOOD       CLOUDY    59  48  67 SW5       29.76F
$$

ABBREVIATIONS USED IN REMARKS
   TC - TEMPERATURE IN CELSIUS
  WCI - WIND CHILL INDEX
   HX - HEAT INDEX
  VSB - VISIBILITY





USA.gov is the U.S. government's official web portal to all federal, state and local government web resources and services.